OK1CBR-13 Weather Reports


time (UTC)temp
C
wind
direction
speed
KPH
gust
KPH
rain 1hr
cm
rain 24hr
cm
rain mn
cm
humidity
%
barometer
mb
20260906010234 13 0.0 0.0 0.00 0.00 0.00 88 1023.9
20260906005234 13 0.0 0.0 0.00 0.00 0.00 92 1023.9
20260906004234 12 0.0 0.0 0.00 0.00 0.00 96 1023.9
20260906003237 12 0.0 0.0 0.00 0.00 0.00 96 1023.9
20260906002233 13 0.0 0.0 0.00 0.00 0.00 96 1023.8
20260906001233 13 0.0 0.0 0.00 0.00 0.00 94 1023.7
20260906000234 13 0.0 0.0 0.00 0.00 0.00 91 1023.7
20260905235233 13 0.0 0.0 0.00 0.00 0.00 89 1023.6
20260905234233 13 0.0 0.0 0.00 0.00 0.00 86 1023.6
20260905233233 14 0.0 0.0 0.00 0.00 0.00 84 1023.5
20260905232233 14 0.0 0.0 0.00 0.00 0.00 81 1023.5
20260905231233 15 0.0 0.0 0.00 0.00 0.00 79 1023.5
20260905230233 15 0.0 0.0 0.00 0.00 0.00 78 1023.4
20260905225233 15 0.0 0.0 0.00 0.00 0.00 77 1023.3
20260905224233 15 0.0 0.0 0.00 0.00 0.00 76 1023.3
20260905223233 15 0.0 0.0 0.00 0.00 0.00 76 1023.2
20260905222233 15 0.0 0.0 0.00 0.00 0.00 76 1023.2
20260905221233 15 0.0 0.0 0.00 0.00 0.00 74 1023.2
20260905220233 15 0.0 0.0 0.00 0.00 0.00 71 1023.1
20260905215233 16 0.0 0.0 0.00 0.00 0.00 70 1022.9
20260905214233 16 0.0 0.0 0.00 0.00 0.00 68 1022.8
20260905213233 16 0.0 0.0 0.00 0.00 0.00 66 1022.7
20260905212233 16 0.0 0.0 0.00 0.00 0.00 63 1022.6
20260905211233 16 0.0 0.0 0.00 0.00 0.00 63 1022.6
20260905210233 16 0.0 0.0 0.00 0.00 0.00 61 1022.6
20260905205233 16 0.0 0.0 0.00 0.00 0.00 60 1022.3
20260905204233 16 0.0 0.0 0.00 0.00 0.00 59 1022.3
20260905203233 16 0.0 0.0 0.00 0.00 0.00 59 1022.1
20260905202233 16 0.0 0.0 0.00 0.00 0.00 59 1022.0
20260905201233 16 0.0 0.0 0.00 0.00 0.00 59 1021.7
20260905200233 16 0.0 0.0 0.00 0.00 0.00 58 1021.6
20260905195233 17 0.0 0.0 0.00 0.00 0.00 57 1021.5
20260905194233 16 0.0 0.0 0.00 0.00 0.00 57 1021.4
20260905193233 16 0.0 0.0 0.00 0.00 0.00 58 1021.2
20260905192233 16 0.0 0.0 0.00 0.00 0.00 59 1021.1
20260905191233 16 0.0 0.0 0.00 0.00 0.00 59 1021.1
20260905190233 16 0.0 0.0 0.00 0.00 0.00 60 1021.0
20260905185233 16 0.0 0.0 0.00 0.00 0.00 60 1021.0
20260905184233 16 0.0 0.0 0.00 0.00 0.00 60 1020.7
20260905183233 16 0.0 0.0 0.00 0.00 0.00 58 1020.7
20260905182233 17 0.0 0.0 0.00 0.00 0.00 54 1020.6
20260905181233 17 0.0 0.0 0.00 0.00 0.00 52 1020.5
20260905180233 17 0.0 0.0 0.00 0.00 0.00 51 1020.3
20260905175233 18 0.0 0.0 0.00 0.00 0.00 49 1020.1
20260905174233 18 0.0 0.0 0.00 0.00 0.00 49 1019.9
20260905173233 18 0.0 0.0 0.00 0.00 0.00 46 1019.8
20260905172233 19 0.0 0.0 0.00 0.00 0.00 45 1019.8
20260905171233 19 0.0 0.0 0.00 0.00 0.00 44 1019.6
20260905170234 20 0.0 0.0 0.00 0.00 0.00 43 1019.5
20260905165234 20 0.0 0.0 0.00 0.00 0.00 42 1019.4
20260905164234 20 0.0 0.0 0.00 0.00 0.00 41 1019.3
20260905163234 21 0.0 0.0 0.00 0.00 0.00 42 1019.2
20260905162233 21 0.0 0.0 0.00 0.00 0.00 40 1019.1
20260905161233 22 0.0 0.0 0.00 0.00 0.00 38 1019.0
20260905160234 22 0.0 0.0 0.00 0.00 0.00 38 1019.0
20260905155233 22 0.0 0.0 0.00 0.00 0.00 39 1018.9
20260905154233 22 0.0 0.0 0.00 0.00 0.00 38 1018.9
20260905153234 22 0.0 0.0 0.00 0.00 0.00 38 1018.8
20260905152234 23 0.0 0.0 0.00 0.00 0.00 38 1018.8
20260905151233 23 0.0 0.0 0.00 0.00 0.00 37 1018.6
20260905150234 23 0.0 0.0 0.00 0.00 0.00 38 1018.7
20260905145234 22 0.0 0.0 0.00 0.00 0.00 38 1018.7
20260905144234 23 0.0 0.0 0.00 0.00 0.00 38 1018.6
20260905143234 23 0.0 0.0 0.00 0.00 0.00 39 1018.7
20260905142234 23 0.0 0.0 0.00 0.00 0.00 38 1018.6
20260905141234 23 0.0 0.0 0.00 0.00 0.00 39 1018.6
20260905140234 23 0.0 0.0 0.00 0.00 0.00 40 1018.5
20260905135234 23 0.0 0.0 0.00 0.00 0.00 40 1018.5
20260905134234 23 0.0 0.0 0.00 0.00 0.00 40 1018.6
20260905133234 22 0.0 0.0 0.00 0.00 0.00 41 1018.7
20260905132234 22 0.0 0.0 0.00 0.00 0.00 41 1018.7
20260905131234 23 0.0 0.0 0.00 0.00 0.00 42 1018.8
20260905130234 23 0.0 0.0 0.00 0.00 0.00 40 1018.8
20260905125234 23 0.0 0.0 0.00 0.00 0.00 41 1018.9
20260905124234 22 0.0 0.0 0.00 0.00 0.00 43 1018.9
20260905123236 22 0.0 0.0 0.00 0.00 0.00 41 1019.0
20260905122232 23 0.0 0.0 0.00 0.00 0.00 42 1019.1
20260905121232 21 0.0 0.0 0.00 0.00 0.00 46 1019.2
20260905120232 22 0.0 0.0 0.00 0.00 0.00 45 1019.2
20260905115232 23 0.0 0.0 0.00 0.00 0.00 50 1019.3
20260905114232 23 0.0 0.0 0.00 0.00 0.00 47 1019.3
20260905113232 23 0.0 0.0 0.00 0.00 0.00 44 1019.3
20260905112232 22 0.0 0.0 0.00 0.00 0.00 47 1019.3
20260905111232 22 0.0 0.0 0.00 0.00 0.00 44 1019.3
20260905110232 22 0.0 0.0 0.00 0.00 0.00 48 1019.4
20260905105232 21 0.0 0.0 0.00 0.00 0.00 47 1019.4
20260905104233 20 0.0 0.0 0.00 0.00 0.00 50 1019.4
20260905103233 21 0.0 0.0 0.00 0.00 0.00 50 1019.4
20260905102232 21 0.0 0.0 0.00 0.00 0.00 51 1019.4
20260905101233 21 0.0 0.0 0.00 0.00 0.00 52 1019.4
20260905100233 20 0.0 0.0 0.00 0.00 0.00 56 1019.3
20260905095233 21 0.0 0.0 0.00 0.00 0.00 60 1019.3
20260905094235 20 0.0 0.0 0.00 0.00 0.00 61 1019.3
20260905093235 20 0.0 0.0 0.00 0.00 0.00 62 1019.2
20260905092233 20 0.0 0.0 0.00 0.00 0.00 67 1019.3
20260905091233 18 0.0 0.0 0.00 0.00 0.00 75 1019.3
20260905090233 17 0.0 0.0 0.00 0.00 0.00 79 1019.3
20260905085233 18 0.0 0.0 0.00 0.00 0.00 79 1019.3
20260905084233 18 0.0 0.0 0.00 0.00 0.00 77 1019.3
20260905083233 19 0.0 0.0 0.00 0.00 0.00 75 1019.2
20260905082233 18 0.0 0.0 0.00 0.00 0.00 80 1019.0
20260905081233 18 0.0 0.0 0.00 0.00 0.00 82 1018.8
20260905080233 18 0.0 0.0 0.00 0.00 0.00 85 1018.7
20260905075233 18 0.0 0.0 0.00 0.00 0.00 87 1018.7
20260905074233 18 0.0 0.0 0.00 0.00 0.00 86 1018.6
20260905073233 17 0.0 0.0 0.00 0.00 0.00 92 1018.6
20260905072233 16 0.0 0.0 0.00 0.00 0.00 10 1018.7
20260905071233 16 0.0 0.0 0.00 0.00 0.00 10 1018.6
20260905070233 16 0.0 0.0 0.00 0.00 0.00 10 1018.6
20260905065233 15 0.0 0.0 0.00 0.00 0.00 10 1018.6
20260905064233 15 0.0 0.0 0.00 0.00 0.00 10 1018.6
20260905063233 15 0.0 0.0 0.00 0.00 0.00 10 1018.5
20260905062233 14 0.0 0.0 0.00 0.00 0.00 10 1018.5
20260905061233 13 0.0 0.0 0.00 0.00 0.00 10 1018.4
20260905060233 13 0.0 0.0 0.00 0.00 0.00 10 1018.3
20260905055233 13 0.0 0.0 0.00 0.00 0.00 10 1018.2
20260905054233 13 0.0 0.0 0.00 0.00 0.00 10 1018.1
20260905053233 13 0.0 0.0 0.00 0.00 0.00 10 1017.9
20260905052233 13 0.0 0.0 0.00 0.00 0.00 10 1017.7
20260905051233 13 0.0 0.0 0.00 0.00 0.00 10 1017.5
20260905050233 13 0.0 0.0 0.00 0.00 0.00 10 1017.4
20260905045233 13 0.0 0.0 0.00 0.00 0.00 10 1017.3
20260905044233 13 0.0 0.0 0.00 0.00 0.00 10 1016.9
20260905043233 13 0.0 0.0 0.00 0.00 0.00 10 1017.0
20260905042233 13 0.0 0.0 0.00 0.00 0.00 10 1017.3
20260905041233 13 0.0 0.0 0.00 0.00 0.00 10 1017.2
20260905040233 13 0.0 0.0 0.00 0.00 0.00 10 1016.9
20260905035233 13 0.0 0.0 0.00 0.00 0.00 10 1016.8
20260905034233 14 0.0 0.0 0.00 0.00 0.00 10 1017.2
20260905033233 15 0.0 0.0 0.00 0.00 0.00 10 1017.2
20260905032233 15 0.0 0.0 0.00 0.00 0.00 10 1017.2
20260905031233 15 0.0 0.0 0.00 0.00 0.00 10 1016.8
20260905030233 15 0.0 0.0 0.00 0.00 0.00 10 1016.1
20260905025233 15 0.0 0.0 0.00 0.00 0.00 10 1016.0
20260905024233 15 0.0 0.0 0.00 0.00 0.00 10 1016.0
20260905023233 15 0.0 0.0 0.00 0.00 0.00 10 1015.9
20260905022233 15 0.0 0.0 0.00 0.00 0.00 10 1015.8
20260905021233 16 0.0 0.0 0.00 0.00 0.00 10 1015.9
20260905020233 16 0.0 0.0 0.00 0.00 0.00 10 1015.5
20260905015233 16 0.0 0.0 0.00 0.00 0.00 10 1015.6
20260905014233 17 0.0 0.0 0.00 0.00 0.00 10 1015.8
20260905013233 17 0.0 0.0 0.00 0.00 0.00 10 1015.5
20260905012233 17 0.0 0.0 0.00 0.00 0.00 10 1015.7
20260905011233 17 0.0 0.0 0.00 0.00 0.00 10 1015.6